| time (UTC) | temp F | wind direction | speed MPH | gust MPH | rain 1hr in | rain 24hr in | rain mn in | humidity % | barometer mb |
| 20260507001100 | 54 | 320 | 6.0 | 9.0 | 0.00 | 0.00 | 0.00 | 29 | 960.6 |
| 20260507000601 | 54 | 317 | 5.0 | 11.0 | 0.00 | 0.00 | 0.00 | 29 | 960.5 |
| 20260507000058 | 55 | 304 | 5.0 | 11.0 | 0.00 | 0.00 | 0.00 | 30 | 960.6 |
| 20260506235559 | 55 | 280 | 5.0 | 12.0 | 0.00 | 0.00 | 0.00 | 30 | 960.6 |
| 20260506235058 | 55 | 325 | 6.0 | 12.0 | 0.00 | 0.00 | 0.00 | 30 | 960.7 |
| 20260506234558 | 55 | 317 | 5.0 | 11.0 | 0.00 | 0.00 | 0.00 | 29 | 960.7 |
| 20260506234058 | 55 | 294 | 4.0 | 11.0 | 0.00 | 0.00 | 0.00 | 30 | 960.6 |
| 20260506233558 | 56 | 309 | 4.0 | 9.0 | 0.00 | 0.00 | 0.00 | 29 | 960.6 |
| 20260506233058 | 56 | 279 | 4.0 | 9.0 | 0.00 | 0.00 | 0.00 | 29 | 960.6 |
| 20260506232558 | 56 | 299 | 4.0 | 9.0 | 0.00 | 0.00 | 0.00 | 30 | 960.7 |
| 20260506232059 | 56 | 294 | 4.0 | 9.0 | 0.00 | 0.00 | 0.00 | 29 | 960.7 |
| 20260506231559 | 57 | 211 | 4.0 | 9.0 | 0.00 | 0.00 | 0.00 | 29 | 960.7 |
| 20260506231058 | 57 | 88 | 5.0 | 13.0 | 0.00 | 0.00 | 0.00 | 29 | 960.5 |
| 20260506230558 | 56 | 289 | 5.0 | 13.0 | 0.00 | 0.00 | 0.00 | 29 | 960.6 |
| 20260506230058 | 55 | 286 | 4.0 | 9.0 | 0.00 | 0.00 | 0.00 | 30 | 960.7 |
| 20260506225059 | 55 | 285 | 6.0 | 11.0 | 0.00 | 0.00 | 0.00 | 29 | 960.8 |
| 20260506224556 | 55 | 311 | 5.0 | 11.0 | 0.00 | 0.00 | 0.00 | 29 | 960.9 |
| 20260506224053 | 55 | 251 | 5.0 | 9.0 | 0.00 | 0.00 | 0.00 | 29 | 960.9 |
| 20260506223550 | 55 | 302 | 5.0 | 9.0 | 0.00 | 0.00 | 0.00 | 30 | 961.0 |
| 20260506223050 | 56 | 334 | 5.0 | 12.0 | 0.00 | 0.00 | 0.00 | 29 | 960.9 |
| 20260506222551 | 56 | 204 | 6.0 | 12.0 | 0.00 | 0.00 | 0.00 | 29 | 961.1 |
| 20260506222050 | 57 | 319 | 6.0 | 11.0 | 0.00 | 0.00 | 0.00 | 28 | 960.9 |
| 20260506221551 | 56 | 311 | 7.0 | 11.0 | 0.00 | 0.00 | 0.00 | 30 | 960.8 |
| 20260506221050 | 56 | 328 | 6.0 | 11.0 | 0.00 | 0.00 | 0.00 | 29 | 961.0 |
| 20260506220551 | 56 | 317 | 6.0 | 14.0 | 0.00 | 0.00 | 0.00 | 29 | 961.1 |
| 20260506220050 | 56 | 330 | 6.0 | 14.0 | 0.00 | 0.00 | 0.00 | 29 | 961.2 |
| 20260506215550 | 56 | 110 | 6.0 | 12.0 | 0.00 | 0.00 | 0.00 | 30 | 961.2 |
| 20260506215051 | 57 | 326 | 6.0 | 14.0 | 0.00 | 0.00 | 0.00 | 29 | 961.2 |
| 20260506214551 | 57 | 345 | 6.0 | 14.0 | 0.00 | 0.00 | 0.00 | 29 | 961.0 |
| 20260506214051 | 56 | 322 | 5.0 | 13.0 | 0.00 | 0.00 | 0.00 | 29 | 961.1 |
| 20260506213551 | 57 | 321 | 6.0 | 13.0 | 0.00 | 0.00 | 0.00 | 29 | 961.3 |
| 20260506213051 | 56 | 307 | 6.0 | 11.0 | 0.00 | 0.00 | 0.00 | 30 | 961.1 |
| 20260506212545 | 55 | 313 | 5.0 | 11.0 | 0.00 | 0.00 | 0.00 | 30 | 961.5 |
| 20260506212041 | 55 | 326 | 5.0 | 14.0 | 0.00 | 0.00 | 0.00 | 30 | 961.5 |
| 20260506211541 | 55 | 269 | 6.0 | 14.0 | 0.00 | 0.00 | 0.00 | 30 | 961.5 |
| 20260506211042 | 55 | 315 | 6.0 | 11.0 | 0.00 | 0.00 | 0.00 | 31 | 961.4 |
| 20260506210542 | 55 | 312 | 5.0 | 9.0 | 0.00 | 0.00 | 0.00 | 31 | 961.8 |
| 20260506210042 | 55 | 325 | 7.0 | 13.0 | 0.00 | 0.00 | 0.00 | 32 | 961.9 |
| 20260506205542 | 55 | 314 | 6.0 | 13.0 | 0.00 | 0.00 | 0.00 | 32 | 961.9 |
| 20260506205041 | 55 | 321 | 5.0 | 12.0 | 0.00 | 0.00 | 0.00 | 32 | 961.7 |
| 20260506204542 | 54 | 319 | 5.0 | 10.0 | 0.00 | 0.00 | 0.00 | 32 | 962.0 |
| 20260506204042 | 54 | 307 | 5.0 | 11.0 | 0.00 | 0.00 | 0.00 | 33 | 962.0 |
| 20260506203542 | 54 | 315 | 5.0 | 11.0 | 0.00 | 0.00 | 0.00 | 33 | 962.1 |
| 20260506203042 | 53 | 311 | 5.0 | 12.0 | 0.00 | 0.00 | 0.00 | 34 | 962.2 |
| 20260506202543 | 54 | 312 | 6.0 | 12.0 | 0.00 | 0.00 | 0.00 | 33 | 962.3 |
| 20260506202310 | 54 | 320 | 6.0 | 14.0 | 0.00 | 0.00 | 0.00 | 34 | 962.2 |
| 20260506201541 | 54 | 352 | 6.0 | 14.0 | 0.00 | 0.00 | 0.00 | 34 | 962.2 |
| 20260506201045 | 54 | 299 | 6.0 | 12.0 | 0.00 | 0.00 | 0.00 | 34 | 962.3 |
| 20260506200539 | 55 | 314 | 6.0 | 12.0 | 0.00 | 0.00 | 0.00 | 34 | 962.2 |
| 20260506200040 | 55 | 317 | 6.0 | 11.0 | 0.00 | 0.00 | 0.00 | 34 | 962.2 |
| 20260506195540 | 55 | 282 | 4.0 | 11.0 | 0.00 | 0.00 | 0.00 | 34 | 962.3 |
| 20260506195310 | 54 | 342 | 4.0 | 13.0 | 0.00 | 0.00 | 0.00 | 34 | 962.3 |
| 20260506194540 | 54 | 300 | 5.0 | 13.0 | 0.00 | 0.00 | 0.00 | 34 | 962.4 |
| 20260506194040 | 54 | 248 | 4.0 | 13.0 | 0.00 | 0.00 | 0.00 | 34 | 962.5 |
| 20260506193540 | 54 | 236 | 5.0 | 11.0 | 0.00 | 0.00 | 0.00 | 34 | 962.5 |
| 20260506193041 | 53 | 315 | 6.0 | 13.0 | 0.00 | 0.00 | 0.00 | 34 | 962.5 |
| 20260506192540 | 53 | 245 | 5.0 | 13.0 | 0.00 | 0.00 | 0.00 | 34 | 962.7 |
| 20260506192040 | 54 | 307 | 5.0 | 14.0 | 0.00 | 0.00 | 0.00 | 34 | 962.7 |
| 20260506191540 | 55 | 264 | 6.0 | 14.0 | 0.00 | 0.00 | 0.00 | 33 | 962.8 |
| 20260506190542 | 54 | 290 | 5.0 | 11.0 | 0.00 | 0.00 | 0.00 | 33 | 962.4 |
| 20260506185542 | 52 | 317 | 6.0 | 13.0 | 0.00 | 0.00 | 0.00 | 35 | 962.4 |
| 20260506185038 | 52 | 298 | 6.0 | 14.0 | 0.00 | 0.00 | 0.00 | 35 | 963.0 |
| 20260506184535 | 52 | 324 | 6.0 | 14.0 | 0.00 | 0.00 | 0.00 | 34 | 962.9 |
| 20260506184254 | 52 | 339 | 6.0 | 13.0 | 0.00 | 0.00 | 0.00 | 37 | 963.1 |
| 20260506183535 | 52 | 326 | 7.0 | 16.0 | 0.00 | 0.00 | 0.00 | 36 | 962.9 |
| 20260506183035 | 52 | 321 | 6.0 | 16.0 | 0.00 | 0.00 | 0.00 | 37 | 963.3 |
| 20260506182534 | 53 | 326 | 6.0 | 14.0 | 0.00 | 0.00 | 0.00 | 36 | 963.2 |
| 20260506182035 | 53 | 299 | 5.0 | 12.0 | 0.00 | 0.00 | 0.00 | 37 | 962.7 |
| 20260506181535 | 52 | 299 | 6.0 | 14.0 | 0.00 | 0.00 | 0.00 | 37 | 962.9 |
| 20260506181035 | 52 | 288 | 5.0 | 14.0 | 0.00 | 0.00 | 0.00 | 37 | 963.5 |
| 20260506180535 | 52 | 168 | 5.0 | 12.0 | 0.00 | 0.00 | 0.00 | 36 | 963.6 |
| 20260506180036 | 52 | 316 | 5.0 | 11.0 | 0.00 | 0.00 | 0.00 | 37 | 963.1 |
| 20260506175800 | 52 | 310 | 6.0 | 15.0 | 0.00 | 0.00 | 0.00 | 37 | 963.7 |
| 20260506175036 | 53 | 310 | 6.0 | 15.0 | 0.00 | 0.00 | 0.00 | 36 | 963.2 |
| 20260506174759 | 52 | 335 | 6.0 | 12.0 | 0.00 | 0.00 | 0.00 | 37 | 963.3 |
| 20260506174036 | 52 | 331 | 7.0 | 12.0 | 0.00 | 0.00 | 0.00 | 37 | 963.5 |
| 20260506173536 | 52 | 327 | 7.0 | 11.0 | 0.00 | 0.00 | 0.00 | 37 | 963.5 |
| 20260506173257 | 51 | 275 | 6.0 | 11.0 | 0.00 | 0.00 | 0.00 | 36 | 963.3 |
| 20260506172536 | 50 | 272 | 6.0 | 11.0 | 0.00 | 0.00 | 0.00 | 37 | 963.3 |
| 20260506172033 | 49 | 305 | 6.0 | 13.0 | 0.00 | 0.00 | 0.00 | 38 | 963.9 |
| 20260506171532 | 49 | 329 | 7.0 | 13.0 | 0.00 | 0.00 | 0.00 | 39 | 963.7 |
| 20260506171033 | 50 | 295 | 7.0 | 13.0 | 0.00 | 0.00 | 0.00 | 38 | 963.9 |
| 20260506170527 | 49 | 3 | 6.0 | 12.0 | 0.00 | 0.00 | 0.00 | 39 | 963.7 |
| 20260506170028 | 50 | 293 | 6.0 | 13.0 | 0.00 | 0.00 | 0.00 | 38 | 964.0 |
| 20260506165524 | 50 | 209 | 6.0 | 13.0 | 0.00 | 0.00 | 0.00 | 39 | 963.9 |
| 20260506165025 | 50 | 304 | 6.0 | 12.0 | 0.00 | 0.00 | 0.00 | 38 | 963.9 |
| 20260506164524 | 50 | 301 | 6.0 | 13.0 | 0.00 | 0.00 | 0.00 | 41 | 963.8 |
| 20260506164025 | 50 | 321 | 6.0 | 13.0 | 0.00 | 0.00 | 0.00 | 39 | 964.0 |
| 20260506163525 | 50 | 329 | 6.0 | 13.0 | 0.00 | 0.00 | 0.00 | 39 | 963.7 |
| 20260506163025 | 49 | 301 | 6.0 | 11.0 | 0.00 | 0.00 | 0.00 | 40 | 964.0 |
| 20260506162524 | 49 | 326 | 6.0 | 13.0 | 0.00 | 0.00 | 0.00 | 40 | 963.7 |
| 20260506162025 | 49 | 292 | 6.0 | 13.0 | 0.00 | 0.00 | 0.00 | 39 | 964.3 |
| 20260506161524 | 50 | 292 | 6.0 | 12.0 | 0.00 | 0.00 | 0.00 | 41 | 963.6 |
| 20260506161024 | 49 | 290 | 6.0 | 15.0 | 0.00 | 0.00 | 0.00 | 41 | 963.8 |
| 20260506160522 | 49 | 312 | 5.0 | 17.0 | 0.00 | 0.00 | 0.00 | 41 | 963.7 |
| 20260506160019 | 49 | 288 | 5.0 | 17.0 | 0.00 | 0.00 | 0.00 | 42 | 963.8 |
| 20260506155518 | 48 | 296 | 5.0 | 11.0 | 0.00 | 0.00 | 0.00 | 42 | 963.8 |
| 20260506155248 | 48 | 39 | 6.0 | 11.0 | 0.00 | 0.00 | 0.00 | 44 | 963.9 |
| 20260506154519 | 48 | 273 | 6.0 | 12.0 | 0.00 | 0.00 | 0.00 | 43 | 964.0 |
| 20260506154020 | 48 | 332 | 4.0 | 12.0 | 0.00 | 0.00 | 0.00 | 45 | 963.9 |
| 20260506153518 | 47 | 256 | 5.0 | 11.0 | 0.00 | 0.00 | 0.00 | 45 | 963.9 |
| 20260506153020 | 46 | 327 | 6.0 | 13.0 | 0.00 | 0.00 | 0.00 | 46 | 964.1 |
| 20260506152739 | 46 | 336 | 6.0 | 13.0 | 0.00 | 0.00 | 0.00 | 46 | 964.1 |
| 20260506152020 | 46 | 323 | 6.0 | 12.0 | 0.00 | 0.00 | 0.00 | 46 | 964.0 |
| 20260506151739 | 46 | 320 | 6.0 | 12.0 | 0.00 | 0.00 | 0.00 | 46 | 964.1 |
| 20260506151020 | 46 | 22 | 6.0 | 12.0 | 0.00 | 0.00 | 0.00 | 46 | 964.0 |
| 20260506150519 | 45 | 254 | 6.0 | 11.0 | 0.00 | 0.00 | 0.00 | 46 | 964.0 |
| 20260506150020 | 45 | 334 | 6.0 | 12.0 | 0.00 | 0.00 | 0.00 | 47 | 964.1 |
| 20260506145519 | 44 | 300 | 6.0 | 12.0 | 0.00 | 0.00 | 0.00 | 48 | 964.1 |
| 20260506145017 | 45 | 331 | 5.0 | 11.0 | 0.00 | 0.00 | 0.00 | 48 | 964.1 |
| 20260506144517 | 45 | 306 | 4.0 | 9.0 | 0.00 | 0.00 | 0.00 | 50 | 964.2 |
| 20260506144017 | 44 | 319 | 4.0 | 9.0 | 0.00 | 0.00 | 0.00 | 50 | 964.1 |
| 20260506143745 | 44 | 340 | 4.0 | 7.0 | 0.00 | 0.00 | 0.00 | 50 | 964.1 |
| 20260506143016 | 44 | 308 | 3.0 | 7.0 | 0.00 | 0.00 | 0.00 | 50 | 964.2 |
| 20260506142517 | 44 | 300 | 3.0 | 7.0 | 0.00 | 0.00 | 0.00 | 52 | 964.2 |
| 20260506141517 | 43 | 337 | 3.0 | 6.0 | 0.00 | 0.00 | 0.00 | 52 | 964.1 |
| 20260506141017 | 43 | 321 | 3.0 | 6.0 | 0.00 | 0.00 | 0.00 | 51 | 964.1 |
| 20260506140517 | 43 | 337 | 2.0 | 6.0 | 0.00 | 0.00 | 0.00 | 52 | 964.1 |
| 20260506140017 | 42 | 315 | 2.0 | 5.0 | 0.00 | 0.00 | 0.00 | 53 | 964.1 |
| 20260506135517 | 42 | 284 | 2.0 | 5.0 | 0.00 | 0.00 | 0.00 | 55 | 964.0 |
| 20260506135239 | 42 | 297 | 2.0 | 4.0 | 0.00 | 0.00 | 0.00 | 57 | 964.0 |
| 20260506134741 | 42 | 28 | 1.0 | 4.0 | 0.00 | 0.00 | 0.00 | 60 | 964.1 |
| 20260506134237 | 42 | 0 | 1.0 | 4.0 | 0.00 | 0.00 | 0.00 | 61 | 964.1 |
| 20260506133518 | 42 | 317 | 1.0 | 6.0 | 0.00 | 0.00 | 0.00 | 61 | 964.1 |
| 20260506133018 | 41 | 271 | 1.0 | 7.0 | 0.00 | 0.00 | 0.00 | 63 | 964.0 |
| 20260506132514 | 41 | 315 | 2.0 | 7.0 | 0.00 | 0.00 | 0.00 | 64 | 963.9 |
| 20260506132015 | 40 | 241 | 2.0 | 7.0 | 0.00 | 0.00 | 0.00 | 64 | 963.9 |
| 20260506131512 | 39 | 303 | 2.0 | 6.0 | 0.00 | 0.00 | 0.00 | 66 | 963.8 |
| 20260506131012 | 38 | 300 | 1.0 | 4.0 | 0.00 | 0.00 | 0.00 | 67 | 963.9 |
| 20260506130512 | 38 | 305 | 1.0 | 4.0 | 0.00 | 0.00 | 0.00 | 67 | 963.8 |
| 20260506130231 | 38 | 0 | 1.0 | 3.0 | 0.00 | 0.00 | 0.00 | 67 | 963.8 |
| 20260506125509 | 37 | 103 | 1.0 | 2.0 | 0.00 | 0.00 | 0.00 | 67 | 963.8 |
| 20260506125010 | 36 | 310 | 0.0 | 2.0 | 0.00 | 0.00 | 0.00 | 68 | 963.7 |
| 20260506124734 | 35 | 186 | 0.0 | 1.0 | 0.00 | 0.00 | 0.00 | 68 | 963.7 |
| 20260506124009 | 34 | 0 | 0.0 | 2.0 | 0.00 | 0.00 | 0.00 | 72 | 963.7 |
| 20260506123742 | 33 | 0 | 0.0 | 2.0 | 0.00 | 0.00 | 0.00 | 73 | 963.7 |
| 20260506123009 | 32 | 0 | 0.0 | 2.0 | 0.00 | 0.00 | 0.00 | 75 | 963.7 |
| 20260506122509 | 31 | 0 | 0.0 | 2.0 | 0.00 | 0.00 | 0.00 | 76 | 963.7 |
| 20260506122010 | 31 | 0 | 0.0 | 2.0 | 0.00 | 0.00 | 0.00 | 78 | 963.8 |
| 20260506121510 | 30 | 294 | 0.0 | 2.0 | 0.00 | 0.00 | 0.00 | 80 | 963.8 |
| 20260506121010 | 30 | 0 | 0.0 | 2.0 | 0.00 | 0.00 | 0.00 | 80 | 963.7 |
| 20260506120509 | 30 | 227 | 0.0 | 2.0 | 0.00 | 0.00 | 0.00 | 81 | 963.6 |
| 20260506120009 | 30 | 0 | 0.0 | 1.0 | 0.00 | 0.00 | 0.00 | 81 | 963.7 |
| 20260506115509 | 30 | 198 | 0.0 | 1.0 | 0.00 | 0.00 | 0.00 | 81 | 963.7 |
| 20260506115010 | 29 | 265 | 0.0 | 1.0 | 0.00 | 0.00 | 0.00 | 81 | 963.6 |
| 20260506114510 | 29 | 0 | 0.0 | 1.0 | 0.00 | 0.00 | 0.00 | 81 | 963.5 |
| 20260506114228 | 29 | 0 | 0.0 | 2.0 | 0.00 | 0.00 | 0.00 | 81 | 963.4 |
| 20260506113510 | 29 | 0 | 0.0 | 2.0 | 0.00 | 0.00 | 0.00 | 81 | 963.4 |
| 20260506113231 | 29 | 0 | 0.0 | 2.0 | 0.00 | 0.00 | 0.00 | 81 | 963.4 |
| 20260506112508 | 29 | 286 | 0.0 | 2.0 | 0.00 | 0.00 | 0.00 | 82 | 963.2 |
| 20260506112007 | 28 | 0 | 0.0 | 1.0 | 0.00 | 0.00 | 0.00 | 83 | 963.3 |
| 20260506111506 | 28 | 0 | 0.0 | 1.0 | 0.00 | 0.00 | 0.00 | 82 | 963.2 |
| 20260506111007 | 29 | 0 | 0.0 | 2.0 | 0.00 | 0.00 | 0.00 | 81 | 963.2 |
| 20260506110507 | 29 | 0 | 0.0 | 2.0 | 0.00 | 0.00 | 0.00 | 80 | 963.1 |
| 20260506110007 | 29 | 337 | 0.0 | 2.0 | 0.00 | 0.00 | 0.00 | 80 | 963.2 |
| 20260506105506 | 29 | 0 | 1.0 | 2.0 | 0.00 | 0.00 | 0.00 | 80 | 963.1 |
| 20260506104507 | 28 | 0 | 0.0 | 2.0 | 0.00 | 0.00 | 0.00 | 80 | 963.1 |
| 20260506104008 | 28 | 221 | 0.0 | 2.0 | 0.00 | 0.00 | 0.00 | 81 | 963.1 |
| 20260506103508 | 28 | 0 | 0.0 | 2.0 | 0.00 | 0.00 | 0.00 | 79 | 963.2 |
| 20260506103226 | 29 | 0 | 0.0 | 2.0 | 0.00 | 0.00 | 0.00 | 79 | 963.0 |
| 20260506102506 | 29 | 227 | 0.0 | 1.0 | 0.00 | 0.00 | 0.00 | 79 | 963.0 |
| 20260506102004 | 29 | 0 | 0.0 | 1.0 | 0.00 | 0.00 | 0.00 | 79 | 963.2 |
| 20260506101502 | 29 | 270 | 0.0 | 1.0 | 0.00 | 0.00 | 0.00 | 78 | 963.2 |
| 20260506101001 | 29 | 0 | 0.0 | 1.0 | 0.00 | 0.00 | 0.00 | 78 | 963.1 |
| 20260506100459 | 29 | 200 | 0.0 | 1.0 | 0.00 | 0.00 | 0.00 | 77 | 963.0 |
| 20260506095958 | 29 | 235 | 0.0 | 1.0 | 0.00 | 0.00 | 0.00 | 77 | 963.0 |
| 20260506095459 | 29 | 0 | 0.0 | 1.0 | 0.00 | 0.00 | 0.00 | 76 | 963.0 |
| 20260506094958 | 29 | 0 | 0.0 | 1.0 | 0.00 | 0.00 | 0.00 | 76 | 963.0 |
| 20260506094459 | 29 | 0 | 0.0 | 1.0 | 0.00 | 0.00 | 0.00 | 77 | 962.9 |
| 20260506093956 | 30 | 0 | 0.0 | 1.0 | 0.00 | 0.00 | 0.00 | 76 | 962.9 |
| 20260506093455 | 30 | 0 | 0.0 | 1.0 | 0.00 | 0.00 | 0.00 | 76 | 962.8 |
| 20260506092956 | 30 | 0 | 0.0 | 2.0 | 0.00 | 0.00 | 0.00 | 75 | 962.7 |
| 20260506092455 | 31 | 0 | 0.0 | 2.0 | 0.00 | 0.00 | 0.00 | 75 | 962.8 |
| 20260506091455 | 31 | 0 | 0.0 | 1.0 | 0.00 | 0.00 | 0.00 | 74 | 962.8 |
| 20260506090953 | 31 | 0 | 0.0 | 2.0 | 0.00 | 0.00 | 0.00 | 74 | 962.8 |
| 20260506090453 | 31 | 287 | 0.0 | 2.0 | 0.00 | 0.00 | 0.00 | 73 | 962.6 |
| 20260506085952 | 31 | 0 | 0.0 | 1.0 | 0.00 | 0.00 | 0.00 | 74 | 962.7 |
| 20260506085453 | 31 | 0 | 0.0 | 2.0 | 0.00 | 0.00 | 0.00 | 74 | 962.7 |
| 20260506084953 | 31 | 0 | 0.0 | 2.0 | 0.00 | 0.00 | 0.00 | 73 | 962.6 |
| 20260506084454 | 31 | 0 | 0.0 | 2.0 | 0.00 | 0.00 | 0.00 | 72 | 962.6 |
| 20260506083954 | 32 | 0 | 0.0 | 2.0 | 0.00 | 0.00 | 0.00 | 71 | 962.6 |
| 20260506083454 | 32 | 245 | 1.0 | 2.0 | 0.00 | 0.00 | 0.00 | 71 | 962.6 |
| 20260506082951 | 32 | 286 | 1.0 | 2.0 | 0.00 | 0.00 | 0.00 | 70 | 962.5 |
| 20260506082450 | 32 | 297 | 1.0 | 2.0 | 0.00 | 0.00 | 0.00 | 70 | 962.4 |
| 20260506081951 | 31 | 293 | 0.0 | 2.0 | 0.00 | 0.00 | 0.00 | 72 | 962.5 |
| 20260506081450 | 31 | 0 | 0.0 | 1.0 | 0.00 | 0.00 | 0.00 | 73 | 962.5 |
| 20260506080947 | 32 | 0 | 0.0 | 2.0 | 0.00 | 0.00 | 0.00 | 73 | 962.4 |
| 20260506080447 | 32 | 243 | 0.0 | 2.0 | 0.00 | 0.00 | 0.00 | 73 | 962.3 |
| 20260506072948 | 34 | 214 | 0.0 | 2.0 | 0.00 | 0.00 | 0.00 | 67 | 962.0 |
| 20260506072446 | 35 | 302 | 0.0 | 2.0 | 0.00 | 0.00 | 0.00 | 67 | 961.9 |
| 20260506071945 | 35 | 97 | 0.0 | 2.0 | 0.00 | 0.00 | 0.00 | 67 | 961.9 |
| 20260506070445 | 35 | 297 | 1.0 | 3.0 | 0.00 | 0.00 | 0.00 | 67 | 962.2 |
| 20260506061947 | 34 | 289 | 0.0 | 2.0 | 0.00 | 0.00 | 0.00 | 66 | 962.4 |
| 20260506061446 | 34 | 0 | 0.0 | 2.0 | 0.00 | 0.00 | 0.00 | 66 | 962.5 |
| 20260506060946 | 34 | 305 | 0.0 | 3.0 | 0.00 | 0.00 | 0.00 | 65 | 962.4 |
| 20260506060447 | 34 | 0 | 1.0 | 3.0 | 0.00 | 0.00 | 0.00 | 64 | 962.2 |
| 20260506050938 | 37 | 0 | 2.0 | 6.0 | 0.00 | 0.00 | 0.00 | 59 | 961.7 |
| 20260506050438 | 37 | 311 | 2.0 | 6.0 | 0.00 | 0.00 | 0.00 | 59 | 961.6 |
| 20260506044938 | 38 | 309 | 3.0 | 7.0 | 0.00 | 0.00 | 0.00 | 58 | 961.8 |
| 20260506043936 | 38 | 317 | 3.0 | 7.0 | 0.00 | 0.00 | 0.00 | 58 | 961.8 |
| 20260506043433 | 38 | 297 | 3.0 | 7.0 | 0.00 | 0.00 | 0.00 | 57 | 961.8 |
| 20260506042933 | 39 | 294 | 4.0 | 7.0 | 0.00 | 0.00 | 0.00 | 57 | 961.7 |
| 20260506041929 | 38 | 295 | 3.0 | 7.0 | 0.00 | 0.00 | 0.00 | 56 | 961.7 |
| 20260506041430 | 38 | 316 | 3.0 | 7.0 | 0.00 | 0.00 | 0.00 | 56 | 961.9 |
| 20260506040930 | 38 | 231 | 3.0 | 7.0 | 0.00 | 0.00 | 0.00 | 57 | 962.0 |
| 20260506035928 | 38 | 290 | 3.0 | 6.0 | 0.00 | 0.00 | 0.00 | 56 | 962.1 |
| 20260506035428 | 39 | 312 | 2.0 | 6.0 | 0.00 | 0.00 | 0.00 | 56 | 962.1 |
| 20260506034928 | 39 | 311 | 2.0 | 6.0 | 0.00 | 0.00 | 0.00 | 55 | 962.1 |
| 20260506034428 | 39 | 0 | 2.0 | 5.0 | 0.00 | 0.00 | 0.00 | 55 | 962.1 |
| 20260506033929 | 39 | 330 | 2.0 | 5.0 | 0.00 | 0.00 | 0.00 | 54 | 961.9 |
| 20260506033429 | 40 | 310 | 1.0 | 4.0 | 0.00 | 0.00 | 0.00 | 54 | 961.9 |
| 20260506032428 | 40 | 302 | 1.0 | 4.0 | 0.00 | 0.00 | 0.00 | 54 | 961.8 |
| 20260506031924 | 40 | 291 | 1.0 | 3.0 | 0.00 | 0.00 | 0.00 | 53 | 961.8 |
| 20260506031425 | 41 | 286 | 2.0 | 4.0 | 0.00 | 0.00 | 0.00 | 52 | 961.8 |
| 20260506030924 | 41 | 273 | 2.0 | 4.0 | 0.00 | 0.00 | 0.00 | 50 | 961.7 |
| 20260506030422 | 41 | 292 | 2.0 | 4.0 | 0.00 | 0.00 | 0.00 | 49 | 961.6 |
| 20260506024921 | 42 | 290 | 2.0 | 4.0 | 0.00 | 0.00 | 0.00 | 51 | 961.7 |
| 20260506024422 | 42 | 299 | 2.0 | 4.0 | 0.00 | 0.00 | 0.00 | 51 | 961.6 |
| 20260506023422 | 43 | 297 | 3.0 | 6.0 | 0.00 | 0.00 | 0.00 | 49 | 961.3 |
| 20260506022422 | 43 | 286 | 3.0 | 8.0 | 0.00 | 0.00 | 0.00 | 48 | 961.1 |
| 20260506021922 | 43 | 305 | 3.0 | 9.0 | 0.00 | 0.00 | 0.00 | 48 | 961.1 |
| 20260506021422 | 44 | 328 | 4.0 | 9.0 | 0.00 | 0.00 | 0.00 | 47 | 960.9 |
| 20260506020922 | 44 | 299 | 4.0 | 8.0 | 0.00 | 0.00 | 0.00 | 46 | 960.8 |
| 20260506020423 | 44 | 310 | 3.0 | 8.0 | 0.00 | 0.00 | 0.00 | 45 | 960.7 |
| 20260506015922 | 44 | 292 | 3.0 | 10.0 | 0.00 | 0.00 | 0.00 | 45 | 960.6 |
| 20260506014917 | 45 | 279 | 3.0 | 8.0 | 0.00 | 0.00 | 0.00 | 44 | 960.7 |
| 20260506014414 | 45 | 304 | 3.0 | 9.0 | 0.00 | 0.00 | 0.00 | 44 | 960.6 |
| 20260506013910 | 45 | 6 | 4.0 | 9.0 | 0.00 | 0.00 | 0.00 | 43 | 960.4 |
| 20260506013411 | 46 | 282 | 4.0 | 10.0 | 0.00 | 0.00 | 0.00 | 43 | 960.5 |
| 20260506012911 | 46 | 311 | 5.0 | 10.0 | 0.00 | 0.00 | 0.00 | 41 | 960.4 |
| 20260506012631 | 46 | 293 | 5.0 | 10.0 | 0.00 | 0.00 | 0.00 | 41 | 960.2 |
| 20260506011911 | 46 | 303 | 5.0 | 10.0 | 0.00 | 0.00 | 0.00 | 40 | 960.2 |
| 20260506011410 | 47 | 309 | 5.0 | 9.0 | 0.00 | 0.00 | 0.00 | 40 | 960.2 |
| 20260506010911 | 47 | 339 | 5.0 | 9.0 | 0.00 | 0.00 | 0.00 | 39 | 960.2 |
| 20260506010412 | 47 | 114 | 4.0 | 9.0 | 0.00 | 0.00 | 0.00 | 40 | 960.1 |
| 20260506005911 | 47 | 333 | 4.0 | 11.0 | 0.00 | 0.00 | 0.00 | 39 | 960.1 |
| 20260506005411 | 48 | 298 | 5.0 | 11.0 | 0.00 | 0.00 | 0.00 | 39 | 960.0 |
| 20260506004911 | 48 | 313 | 5.0 | 10.0 | 0.00 | 0.00 | 0.00 | 38 | 959.9 |
| 20260506004633 | 48 | 291 | 6.0 | 11.0 | 0.00 | 0.00 | 0.00 | 37 | 959.8 |
| 20260506003911 | 48 | 312 | 6.0 | 11.0 | 0.00 | 0.00 | 0.00 | 37 | 959.7 |
| 20260506003408 | 48 | 316 | 6.0 | 10.0 | 0.00 | 0.00 | 0.00 | 38 | 959.7 |
| 20260506002907 | 49 | 293 | 6.0 | 10.0 | 0.00 | 0.00 | 0.00 | 38 | 959.7 |
| 20260506002629 | 49 | 323 | 6.0 | 12.0 | 0.00 | 0.00 | 0.00 | 38 | 959.6 |
| 20260506001904 | 49 | 343 | 6.0 | 12.0 | 0.00 | 0.00 | 0.00 | 38 | 959.5 |
| 20260506001634 | 49 | 327 | 6.0 | 13.0 | 0.00 | 0.00 | 0.00 | 37 | 959.5 |